Regional Weather Roundup
Issued by NWS

Home | Current Version | Previous Version | Text Only | Print | Product List | Glossary On
Versions: 1 2 3 4 5 6 7 8 9 10 11 12 13 14 15 16 17 18 19 20 21 22 23 24 25 26 27 28 29 30 31 32 33 34 35 36 37 38 39 40 41 42 43 44 45 46 47 48 49 50
000
ASUS45 KBOI 311510
RWRID

IDAHO REGIONAL WEATHER ROUNDUP
NATIONAL WEATHER SERVICE BOISE ID
900 AM MDT TUE MAY 31 2016

NOTE: "FAIR" INDICATES FEW OR NO CLOUDS BELOW 12000 FEET
WITH NO SIGNIFICANT WEATHER AND/OR OBSTRUCTIONS TO VISIBILITY

IDZ012-014-311600-
SOUTHWEST IDAHO


CITY           SKY/WX    TMP DP  RH WIND       PRES   REMARKS
BOISE          SUNNY     56  37  49 VRB3      30.13S
CALDWELL       SUNNY     60  38  43 W7        30.14R
MOUNTAIN HOME  SUNNY     61  42  50 N6        30.13R
$$

IDZ016-017-311600-
SOUTHCENTRAL IDAHO


CITY           SKY/WX    TMP DP  RH WIND       PRES   REMARKS
BURLEY         SUNNY     56  33  42 N3        30.15R
JEROME         SUNNY     54  33  45 S5        30.15R
TWIN FALLS     SUNNY     56  33  42 W8        30.15S
$$

IDZ019>023-311600-
SOUTHEAST IDAHO


CITY           SKY/WX    TMP DP  RH WIND       PRES   REMARKS
IDAHO FALLS    SUNNY     53  34  48 N13       30.19R
POCATELLO      SUNNY     55  36  48 VRB3      30.17R
REXBURG        SUNNY     52  33  48 NE9       30.19R
$$

IDZ006-010-011-018-031-032-311600-
CENTRAL IDAHO MOUNTAINS


CITY           SKY/WX    TMP DP  RH WIND       PRES   REMARKS
MCCALL         SUNNY     52  28  39 VRB3      30.17F
HAILEY         SUNNY     54  34  47 N8        30.19S
STANLEY          N/A     44  30  57 CALM      30.24F
SALMON         SUNNY     46  32  57 CALM      30.21S
CHALLIS        SUNNY     50  30  46 SE5       30.20F
$$

IDZ002-004-006-007-026-311600-
NORTHERN IDAHO


CITY           SKY/WX    TMP DP  RH WIND       PRES   REMARKS
LEWISTON       SUNNY     55  41  59 E5        30.19S
LOWELL           N/A     49  42  77 CALM      30.24F
COEUR D`ALENE  SUNNY     55  43  62 NE12      30.18S
MULLAN PASS    SUNNY     48  28  46 VRB3      30.24S
$$



USA.gov is the U.S. government's official web portal to all federal, state and local government web resources and services.